To NAV CANADA Home Page Login to a new session Search on AWWS site Disclaimer Vers la page française équivalente Tips FAQ What's new on the site To the Forecasts and Observations / NOTAM section To "File a Flight Plan" website Publications and other links Update of the User's profile FIC Telephone Numbers My Weather Data Folder Route Weather Data Regional Weather Data Local Weather Data To the Forecasts and Observations / NOTAM section
Request Generated 10/27/2020 at 09:43:10 UTC . Weather information available at that time is displayed.

METAR/TAF

TORONTO/BUTTONVILLE MUNICIPAL/ON    

LWIS CYKZ 270900Z AUTO 36004KT 05/02 A3023=
LWIS CYKZ 270800Z AUTO 34007KT 05/03 A3023=
LWIS CYKZ 270700Z AUTO 33006KT 05/02 A3024=

CYKZ - No TAF is issued for this station

Your time UTC time
Weather data provided by Environment Canada and NAV CANADA